Weather in Brunswick

Germany     52˚16′07″N   10˚31′30″E
temp.,
°C
wind,
m/s
gust,
m/s
humid.,
%
clouds,
%
prec.,
mm/h
press.,
hPa
HPBL,
m
2 december, wed
wed201:00ene339144 0.0 102277
04:00e349125 0.0 102197
07:00−1˚ese349219 0.0 1021103
10:00+1˚ese35850 0.0 1020213
13:00+3˚ese34720 0.0 1017331
16:00ese23860 0.0 101545
19:00−1˚se23920 0.0 101453
22:00−1˚s22921 0.0 101344
3 december, thu
thu301:00−1˚sse33910 0.0 101167
04:00−1˚sse238928 0.0 100858
07:00+1˚s268362 0.0 1006292
10:00+2˚s3680100 0.0 1004362
13:00+4˚ssw4773100 0.0 1002567
16:00+2˚sse368293 0.0 1000203
19:00se358859 0.0 998136
22:00+2˚se4978100 0.0 997293
4 december, fri
fri401:00+2˚se5972100 0.0 995218
04:00+1˚ese61175100 0.0 993209
07:00+2˚se5967100 0.0 992203
10:00+3˚se61061100 0.0 992269
13:00+6˚ese4666100 0.0 991161
16:00+2˚ese497290 0.0 991215
19:00+1˚ese478472 0.0 992146
22:00+1˚se2387100 0.0 99354
5 december, sat
sat501:00+1˚wsw228186 0.0 99424
04:00se1281100 0.0 99423
07:00wsw118499 0.0 99522
10:00+1˚wnw1280100 0.0 99571
13:00+4˚nnw237283 0.0 996339
16:00+1˚n118696 0.0 99622
19:00+1˚wnw228998 0.0 99724
22:00+1˚wnw1187100 0.0 99726
6 december, sun
sun601:00+1˚w3498100 0.8 997156
04:00+1˚sw0098100 0.1 99755
07:00+2˚nnw1198100 0.1 99845
10:00+2˚e1198100 0.4 99852
13:00+2˚e2396100 0.8 998119
16:00+2˚nnw1196100 0.3 99789
19:00+3˚wsw1296100 0.8 99884
22:00+2˚wsw2295100 0.1 99958